Weather History for Muncie, IN

Change the Weather History Date:

Saturday, November 24, 2012

  Actual Average Record
Temperature  
Mean Temperature 28 °F 39 °F  
Max Temperature 30 °F 47 °F 64 °F (2001)
Min Temperature 25 °F 31 °F 3 °F (1970)
Degree Days  
Heating Degree Days 37 26  
Month to date heating degree days 559 504  
Since 1 July heating degree days 1090 968  
Cooling Degree Days 0 0  
Month to date cooling degree days 0 0  
Year to date cooling degree days 1149 955  
Moisture  
Dew Point 19 °F    
Average Humidity 67    
Maximum Humidity 75    
Minimum Humidity 58    
Precipitation  
Precipitation 0.00 in 0.12 in 1.03 in (2004)
Month to date precipitation 0.92 2.78  
Year to date precipitation 30.57 36.57  
Sea Level Pressure  
Sea Level Pressure 30.18 in    
Wind  
Wind Speed 9 mph (West)    
Max Wind Speed 18 mph    
Max Gust Speed 17 mph    
Visibility 10 miles    
Events      
T = Trace of Precipitation, MM = Missing Value Source: NWS Daily Summary

Daily Weather History Graph

Daily Weather History Graph

Search for Another Location

Airport:

Trip Planner

Search our weather history database for the weather conditions in past years. The results will help you decide how hot, cold, wet, or windy it might be!

Date:

Astronomy

Nov. 24, 2012 Rise Set
Actual Time 7:38 AM EST 5:18 PM EST
Civil Twilight 7:08 AM EST 5:48 PM EST
Nautical Twilight 6:34 AM EST 6:21 PM EST
Astronomical Twilight 6:02 AM EST 6:54 PM EST
Moon 3:03 PM EST 3:53 AM EST
Length of Visible Light 10h 40m
Length of Day
9h 40m
Waxing Gibbous, 87% of the Moon is Illuminated
Nov 24
Waxing Gibbous
Nov 28
Full
Dec 6
Last Quarter
Dec 13
New
Dec 20
First Quarter

Hourly Weather History & Observations

Time (EST) Temp. Windchill Dew Point Humidity Pressure Visibility Wind Dir Wind Speed Gust Speed Precip Events Conditions
12:53 AM 27.0 °F 16.7 °F 17.1 °F 66% 30.19 in 10.0 mi WNW 11.5 mph - N/A   Overcast
1:25 AM 26.6 °F 17.5 °F 17.6 °F 69% 30.16 in 10.0 mi West 9.2 mph - N/A   Overcast
1:53 AM 27.0 °F 18.7 °F 18.0 °F 69% 30.18 in 10.0 mi WSW 8.1 mph 17.3 mph N/A   Overcast
2:53 AM 27.0 °F 18.0 °F 18.0 °F 69% 30.19 in 10.0 mi West 9.2 mph - N/A   Overcast
3:53 AM 27.0 °F 16.7 °F 18.0 °F 69% 30.19 in 10.0 mi West 11.5 mph - N/A   Overcast
4:40 AM 26.6 °F 16.2 °F 17.6 °F 69% 30.16 in 10.0 mi West 11.5 mph - N/A   Overcast
4:53 AM 27.0 °F 18.0 °F 18.0 °F 69% 30.18 in 10.0 mi West 9.2 mph - N/A   Overcast
5:12 AM 26.6 °F 16.8 °F 19.4 °F 74% 30.16 in 10.0 mi West 10.4 mph - N/A   Overcast
5:53 AM 27.0 °F 17.3 °F 19.0 °F 72% 30.20 in 10.0 mi West 10.4 mph - N/A   Overcast
6:04 AM 26.6 °F 16.8 °F 19.4 °F 74% 30.18 in 10.0 mi WNW 10.4 mph - N/A   Overcast
6:13 AM 26.6 °F 16.8 °F 19.4 °F 74% 30.18 in 10.0 mi West 10.4 mph - N/A   Overcast
6:42 AM 26.6 °F 17.5 °F 19.4 °F 74% 30.18 in 10.0 mi West 9.2 mph - N/A   Overcast
6:53 AM 27.0 °F - 19.0 °F 72% 30.20 in 10.0 mi North - - N/A   Overcast
7:53 AM 27.0 °F 16.1 °F 19.0 °F 72% 30.21 in 10.0 mi West 12.7 mph - N/A   Overcast
8:53 AM 27.0 °F 16.1 °F 18.0 °F 69% 30.22 in 10.0 mi West 12.7 mph - N/A   Overcast
9:53 AM 27.0 °F 16.7 °F 19.0 °F 72% 30.23 in 10.0 mi West 11.5 mph - N/A   Overcast
10:53 AM 28.0 °F 17.5 °F 19.0 °F 69% 30.25 in 10.0 mi WNW 12.7 mph - N/A   Overcast
11:50 AM 28.4 °F 19.1 °F 19.4 °F 69% 30.21 in 10.0 mi WNW 10.4 mph - N/A   Overcast
11:53 AM 28.9 °F 19.8 °F 19.9 °F 69% 30.24 in 10.0 mi West 10.4 mph - N/A   Overcast
12:49 PM 28.4 °F 19.1 °F 19.4 °F 69% 30.20 in 10.0 mi West 10.4 mph - N/A   Overcast
12:53 PM 28.9 °F 19.8 °F 19.0 °F 67% 30.22 in 10.0 mi WNW 10.4 mph - N/A   Overcast
1:53 PM 28.9 °F 19.2 °F 19.0 °F 67% 30.21 in 10.0 mi WNW 11.5 mph - N/A   Overcast
2:53 PM 30.0 °F 21.7 °F 19.9 °F 66% 30.20 in 10.0 mi NW 9.2 mph - N/A   Overcast
3:53 PM 30.0 °F 22.4 °F 19.0 °F 64% 30.19 in 10.0 mi West 8.1 mph - N/A   Overcast
4:53 PM 30.0 °F 24.1 °F 19.0 °F 64% 30.19 in 10.0 mi West 5.8 mph - N/A   Overcast
5:32 PM 30.2 °F 23.4 °F 19.4 °F 64% 30.17 in 10.0 mi WNW 6.9 mph - N/A   Overcast
5:53 PM 30.0 °F 24.1 °F 18.0 °F 61% 30.19 in 10.0 mi WSW 5.8 mph - N/A   Overcast
6:53 PM 28.9 °F 21.9 °F 18.0 °F 64% 30.17 in 10.0 mi West 6.9 mph - N/A   Overcast
7:53 PM 28.9 °F 21.9 °F 18.0 °F 64% 30.18 in 10.0 mi West 6.9 mph - N/A   Overcast
8:42 PM 26.6 °F - 17.6 °F 69% 30.12 in 10.0 mi Calm Calm - N/A   Scattered Clouds
8:53 PM 27.0 °F - 17.1 °F 66% 30.15 in 10.0 mi Calm Calm - N/A   Partly Cloudy
9:53 PM 26.1 °F - 17.1 °F 69% 30.14 in 10.0 mi Calm Calm - N/A   Clear
10:53 PM 26.1 °F - 18.0 °F 71% 30.12 in 10.0 mi North - - N/A   Clear
11:53 PM 27.0 °F 21.6 °F 19.0 °F 72% 30.10 in 10.0 mi SSW 4.6 mph - N/A   Mostly Cloudy